Temperature
26 27 27 26 26 26 26 26 25 25 26 26 27 27 27 27 26 25 25 24 23 22 21 20 19 19 18 18 17 17 16 16 16 15 15 15 14 14 14 14 14 13 14 13
26 27 27 26 27 26 26 26 26 26 26 27 27 27 27 26 26 25 24 24 23 22 21 20 20 19 19 18 18 17 16 16 16 15 15 15 14 14 14 14 14 13 13 13
25 26 26 25 27 27 26 27 26 25 26 27 27 26 26 26 25 25 24 24 23 22 22 21 20 19 19 18 18 17 17 16 16 15 15 15 14 14 14 14 14 14 13 13
24 25 24 26 28 27 26 26 27 26 26 26 26 26 26 25 25 25 24 23 23 22 22 21 21 20 19 19 18 17 17 17 16 15 15 15 14 14 14 14 14 14 14 13
24 24 25 26 27 27 26 25 26 26 26 26 26 26 25 25 24 24 24 23 23 22 22 22 21 21 20 19 18 18 17 17 16 16 15 15 15 14 14 14 14 14 13 13
23 23 23 25 26 26 26 24 26 26 25 25 25 23 24 24 24 23 23 23 22 22 22 22 21 21 20 19 19 18 17 17 16 16 15 15 15 15 14 14 14 14 14 13
23 23 24 25 25 26 24 23 25 25 24 24 24 23 23 23 23 23 22 22 22 21 21 21 21 20 20 19 19 18 18 17 16 16 16 15 15 15 14 14 14 14 14 14
23 23 23 24 25 24 23 24 24 23 23 23 23 22 22 22 22 22 22 21 21 21 21 21 20 20 20 19 19 18 18 17 16 16 16 15 15 15 14 14 14 14 14 14
24 23 23 23 23 22 22 22 22 22 21 21 21 22 22 21 21 21 21 21 21 20 20 20 20 20 19 19 19 18 18 17 16 16 16 15 15 15 14 14 14 14 14 14
23 23 23 22 22 21 21 21 20 20 20 20 20 20 21 21 21 20 20 20 20 19 19 19 19 19 19 19 19 18 17 17 16 16 15 15 15 15 14 14 14 14 14 13
21 22 22 22 21 20 20 19 19 19 19 19 19 19 20 20 20 20 20 19 19 19 19 19 19 19 18 18 18 18 17 17 16 16 15 15 15 14 14 14 14 14 14 13
20 21 21 20 19 19 18 18 18 18 18 18 18 18 18 19 19 19 19 19 19 18 18 18 18 18 18 18 18 17 17 16 16 16 15 15 15 14 14 14 14 13 13 13
19 19 19 18 18 17 17 17 17 17 17 17 17 17 17 17 18 18 18 18 18 18 18 18 18 18 17 17 17 17 17 17 16 16 15 15 15 14 14 13 13 13 13 12
17 17 17 17 17 16 16 16 16 16 16 16 16 16 16 16 17 17 17 17 17 17 17 17 17 17 17 17 17 17 17 16 16 16 15 15 14 14 14 13 13 13 12 12
16 16 16 16 15 15 15 15 15 15 15 15 15 15 15 15 15 16 16 16 17 17 17 16 16 17 17 16 16 16 16 16 16 15 15 14 14 14 13 13 13 12 12 11
15 15 15 14 14 14 14 14 14 14 14 14 14 14 14 14 14 15 15 15 15 16 16 16 16 16 16 16 16 15 15 16 15 15 14 14 13 13 13 12 12 12 11 11
14 14 14 13 13 13 13 13 13 13 13 13 13 13 13 13 13 14 14 14 14 15 15 15 15 15 15 15 15 15 15 15 15 14 14 13 13 12 12 12 11 11 11 10
13 13 13 12 12 12 12 12 12 12 11 11 11 12 12 12 12 12 13 13 13 14 14 14 14 14 14 14 14 14 14 14 14 13 13 12 12 12 12 11 11 11 10 10
12 12 12 12 12 11 11 11 11 11 11 11 11 11 11 11 11 11 12 12 12 12 13 13 13 13 13 13 13 13 13 13 13 13 12 12 11 11 11 11 10 10 10 9
11 11 11 11 11 11 11 10 10 10 10 10 10 10 10 10 10 10 10 11 11 11 12 12 12 12 12 12 12 12 12 12 12 12 11 11 11 10 10 10 10 9 9 9
10 10 10 10 10 10 10 10 10 9 9 9 9 9 9 9 9 9 10 10 10 11 11 11 11 11 11 11 11 11 11 11 11 11 11 10 10 10 9 9 9 9 8 8
10 10 10 10 9 9 9 9 9 9 9 9 9 9 8 8 8 9 9 9 9 10 10 10 10 10 10 10 10 10 10 10 10 10 10 10 9 9 9 8 8 8 7 7
9 9 9 9 9 9 9 9 9 9 8 8 8 8 8 8 8 8 8 8 9 9 9 9 9 9 9 9 9 9 9 9 9 9 9 9 9 8 8 8 8 7 7 7
9 9 8 8 8 8 8 8 8 8 8 8 8 7 7 7 7 7 8 8 8 8 8 8 8 8 8 8 8 8 8 8 8 8 8 8 8 8 8 7 7 7 7 6
8 8 8 8 8 8 8 8 8 8 7 7 7 7 7 7 7 7 7 7 7 7 7 7 7 7 7 7 7 7 7 7 7 7 7 7 7 7 7 7 6 6 6 6
8 8 8 8 8 8 8 7 7 7 7 7 7 7 7 6 6 6 6 6 6 6 6 6 6 6 6 6 6 6 6 6 6 7 7 7 6 6 6 6 6 6 5 5
7 7 7 7 7 7 7 7 7 7 7 6 6 6 6 6 6 6 6 6 6 6 6 5 5 5 5 5 5 6 5 6 6 6 6 6 6 6 5 5 5 5 5 5
Wind_Speed
8 7 8 9 9 8 10 10 11 10 9 7 6 3 1 1 3 4 6 7 9 9 9 9 9 8 8 8 8 8 8 7 5 3 3 2 2 1 1 2 2 2 2 2
12 10 10 12 11 11 11 11 12 11 9 7 5 3 2 2 2 3 4 5 7 9 10 11 11 10 9 8 8 8 8 7 5 3 3 2 2 1 1 1 2 2 2 2
12 11 11 11 9 8 7 8 9 8 6 5 5 4 3 2 0 2 3 4 5 6 8 10 11 11 10 9 9 8 8 7 7 5 4 3 2 2 1 1 0 1 1 1
11 11 12 5 1 2 5 6 7 6 4 5 5 3 1 2 1 1 3 4 4 5 6 8 9 10 10 10 9 9 8 8 8 6 5 4 3 2 2 1 1 1 1 0
9 11 10 6 2 2 4 5 4 4 4 6 7 5 0 3 2 1 0 3 3 4 4 6 8 9 10 10 10 9 8 8 8 8 7 5 5 4 3 2 1 1 1 2
8 10 9 3 3 3 4 3 4 5 6 6 6 4 4 6 3 3 2 1 2 3 3 5 6 8 9 10 10 10 9 9 8 8 7 6 6 4 4 3 3 2 2 2
10 11 7 3 3 2 3 3 7 7 7 7 6 5 6 6 4 2 1 1 1 2 3 3 5 6 8 9 9 9 9 8 7 8 8 7 5 4 4 4 3 3 3 2
7 9 4 5 3 3 5 7 7 8 9 8 8 7 7 6 4 2 1 1 2 2 2 3 5 6 7 8 8 9 9 8 8 8 7 7 6 5 4 4 4 4 3 2
6 3 3 4 5 6 7 7 8 9 9 9 9 8 6 5 4 3 2 2 3 3 3 3 5 6 7 7 8 9 9 9 8 8 6 6 7 6 4 4 3 3 2 2
9 6 5 5 6 6 7 8 9 9 10 10 10 10 8 6 4 4 3 3 3 4 4 5 5 5 6 7 8 9 10 9 8 8 7 6 5 4 3 2 2 1 1 1
13 11 10 6 5 7 7 8 10 10 10 10 10 11 10 8 6 4 4 3 3 4 5 6 5 6 6 6 8 9 10 10 9 8 7 6 5 3 3 3 3 2 1 2
11 10 10 8 8 8 9 9 10 10 10 10 9 10 10 9 7 6 5 4 4 5 5 6 6 6 6 7 8 9 9 10 8 7 7 7 7 5 7 5 6 7 7 5
11 12 10 10 10 9 9 10 11 11 10 10 9 9 10 9 8 7 6 6 6 6 6 6 6 6 6 7 8 9 8 8 7 8 8 8 8 8 6 4 5 6 7 8
8 9 10 9 9 9 10 11 11 11 10 10 9 9 9 9 9 9 8 6 6 6 6 6 6 7 7 7 8 8 7 8 8 7 8 8 8 8 8 8 6 3 3 6
8 8 9 10 9 9 9 10 11 11 10 10 9 9 9 10 10 10 9 8 7 6 6 6 6 6 5 6 8 8 7 6 7 7 7 7 7 7 7 9 8 7 6 4
9 9 8 9 9 9 9 10 10 11 10 11 10 10 11 11 11 10 9 8 7 7 6 5 6 5 5 5 6 6 6 8 8 6 7 7 7 7 7 7 8 7 7 6
9 8 9 9 9 9 9 9 10 10 10 11 11 11 11 11 11 10 9 8 8 7 5 5 4 3 4 5 5 4 5 7 10 7 6 6 6 7 7 7 7 7 6 8
7 8 8 9 9 9 9 9 9 10 10 11 12 11 11 11 11 10 9 9 8 7 5 4 2 2 3 5 4 4 5 5 6 6 5 5 5 6 6 7 8 8 6 7
7 8 9 9 8 8 9 9 9 9 10 10 11 11 11 11 10 10 10 8 8 7 5 3 3 3 3 4 4 4 5 6 6 6 6 7 6 5 6 7 7 8 8 7
8 9 9 9 8 8 9 9 9 10 10 10 10 10 10 10 10 10 10 8 6 4 3 3 3 3 3 3 4 3 4 5 6 6 6 6 6 6 6 7 7 7 7 7
9 9 8 8 8 9 9 10 9 9 9 9 9 9 10 10 10 9 8 7 5 4 3 3 3 2 2 2 4 3 4 4 5 6 6 7 7 6 6 7 7 7 7 7
8 8 9 9 9 9 9 10 9 9 9 9 9 9 9 9 9 9 8 5 4 4 3 2 2 3 3 3 2 3 4 4 5 5 6 7 7 7 7 7 7 7 8 7
10 10 10 10 11 11 11 10 9 9 8 8 8 8 8 7 7 7 7 5 3 3 3 2 3 4 4 3 2 3 3 4 5 5 6 6 7 7 7 7 7 7 7 7
11 11 11 11 11 11 11 10 9 8 7 7 7 7 7 6 6 5 4 4 4 3 3 2 3 4 4 3 3 4 4 4 4 5 5 5 6 6 6 7 6 7 7 8
11 11 11 11 11 9 9 9 9 8 7 6 6 6 5 4 4 4 4 3 3 3 3 3 4 4 3 3 3 3 4 4 5 5 5 5 5 6 6 6 6 7 7 7
11 10 9 10 10 7 7 7 6 5 5 5 5 4 4 4 4 4 3 3 3 3 2 1 2 3 3 2 2 3 3 4 4 4 5 5 6 6 6 7 8 7 7 7
11 10 8 8 7 6 6 6 6 5 5 5 5 4 4 4 4 4 4 3 3 2 2 2 2 2 2 2 2 2 3 3 4 4 5 5 6 6 7 8 7 7 7 7
Wind_Direction
291 283 277 273 268 259 259 269 278 291 300 310 316 319 306 203 186 178 176 175 173 176 181 176 180 184 184 177 174 172 171 186 195 196 165 154 158 183 39 337 334 9 15 20
286 277 276 273 264 259 260 265 271 278 283 298 313 343 333 296 182 179 187 186 182 183 184 181 184 187 183 178 177 174 175 179 167 176 154 158 176 136 82 321 337 12 15 15
290 289 283 273 271 264 266 274 277 278 294 321 323 331 328 328 232 190 191 186 189 195 188 186 187 183 180 177 176 176 175 167 162 173 165 172 168 138 178 216 208 335 343 16
284 285 276 283 304 292 284 287 290 295 317 327 325 309 312 344 296 230 186 174 191 206 193 187 186 177 173 171 172 176 174 165 163 165 167 168 161 168 209 195 171 219 250 270
276 280 277 277 289 300 293 295 314 325 348 354 337 304 288 28 2 345 156 169 180 203 204 193 185 174 170 172 174 174 171 168 167 169 169 170 179 188 192 199 212 218 224 225
269 277 283 314 47 19 306 289 19 8 360 354 343 329 351 6 12 14 36 128 166 195 211 193 179 168 171 176 177 176 172 172 171 165 164 174 187 189 185 189 206 215 224 223
258 269 278 23 49 339 287 24 30 20 9 359 349 350 350 350 5 15 28 102 166 193 207 189 172 169 179 183 182 173 163 164 162 161 168 175 178 182 189 189 197 212 225 216
260 265 276 50 9 353 8 16 12 12 7 357 346 344 346 347 347 339 318 210 204 211 207 187 177 178 189 189 170 153 153 161 167 168 177 175 171 187 196 191 197 211 217 217
298 311 23 26 17 6 359 354 359 356 350 344 334 326 326 330 326 309 272 229 213 225 216 201 194 190 195 180 158 153 158 166 171 173 177 168 170 182 191 195 196 205 197 191
297 299 325 341 350 353 354 353 348 343 339 337 329 323 318 312 301 294 281 248 213 217 222 219 208 202 199 173 162 164 169 174 178 181 175 167 159 161 162 167 179 189 173 159
288 296 306 310 337 341 348 344 335 329 326 327 322 316 314 309 299 287 277 259 229 222 225 227 214 205 195 178 176 180 181 180 184 182 170 157 136 112 138 117 145 154 124 97
283 303 307 320 337 345 338 327 323 322 320 319 316 313 313 310 307 297 284 271 252 237 227 230 223 211 194 188 191 193 190 186 183 175 165 157 144 119 72 104 108 106 106 112
296 308 309 318 325 326 317 317 317 314 311 312 313 312 310 308 307 301 288 276 261 248 237 235 229 217 201 194 200 202 195 184 176 173 170 166 162 158 149 111 86 93 107 114
311 313 306 313 316 319 317 315 311 307 308 312 314 315 314 311 307 303 295 285 275 260 246 239 231 222 202 196 202 206 199 188 175 172 171 172 172 170 167 166 163 152 132 139
304 302 303 313 317 316 317 316 313 312 316 317 320 321 319 315 308 302 300 296 287 270 254 245 238 227 203 199 204 205 196 184 176 170 169 172 170 168 168 169 162 155 151 160
303 301 302 304 305 308 310 310 310 311 315 318 320 322 319 314 308 305 303 300 288 273 262 252 246 230 202 199 203 199 190 183 169 168 171 172 171 170 169 167 163 161 161 161
293 294 298 298 299 302 303 306 308 310 314 315 316 317 314 311 309 308 305 302 296 286 272 257 249 232 203 199 199 193 182 178 172 174 177 176 176 174 169 163 161 159 154 156
286 288 291 296 298 299 301 306 310 312 312 313 313 312 310 308 306 306 304 301 297 293 281 268 252 241 221 203 198 189 180 175 177 175 169 172 173 168 162 158 155 150 147 150
297 298 298 296 299 302 304 307 310 311 312 311 310 310 308 307 308 307 305 300 293 287 283 280 258 234 234 215 198 184 179 178 179 169 162 162 166 162 158 156 155 153 152 154
297 296 297 302 305 305 307 308 308 307 308 309 308 309 308 309 310 307 304 296 288 284 288 286 264 242 231 217 195 192 185 183 179 170 162 164 167 165 160 156 153 152 151 154
295 294 297 300 301 302 301 300 300 300 303 305 305 307 307 307 307 304 301 298 301 310 296 266 248 240 227 220 206 203 188 183 179 176 170 168 166 164 162 159 157 157 157 156
292 294 296 297 297 298 299 299 298 299 301 301 301 303 305 305 307 307 303 299 300 304 299 260 240 230 234 232 218 202 190 185 183 179 174 170 168 167 167 165 164 161 159 157
291 292 293 294 293 293 293 295 296 297 297 299 303 304 301 299 297 295 297 300 299 293 294 264 244 225 223 222 210 198 189 185 183 178 174 170 167 165 166 165 163 157 153 149
284 286 287 289 289 289 290 295 297 296 296 297 297 298 299 299 295 291 290 295 299 289 285 243 227 216 212 217 207 200 189 177 174 175 171 166 163 162 159 157 153 148 145 142
283 284 286 290 289 288 291 295 296 296 295 291 293 298 300 297 297 304 307 304 293 281 275 244 229 213 212 225 212 191 176 167 161 157 156 154 153 150 148 146 145 142 141 141
285 283 282 281 283 282 285 284 283 284 289 290 291 295 300 301 300 299 299 294 280 276 278 263 216 201 207 213 192 172 159 153 152 153 153 149 147 145 146 148 147 145 143 141
283 280 278 276 273 273 277 280 281 283 287 289 290 292 295 298 299 298 299 295 279 251 238 225 204 199 205 202 174 165 164 164 160 156 152 150 150 150 151 148 143 138 137 138
Height
1457 1455 1455 1457 1458 1458 1462 1463 1468 1464 1460 1454 1450 1450 1451 1452 1454 1456 1458 1460 1462 1464 1466 1468 1470 1472 1474 1476 1477 1478 1480 1481 1482 1483 1483 1483 1483 1483 1482 1482 1482 1482 1481 1480
1459 1453 1452 1454 1453 1453 1455 1455 1456 1456 1455 1448 1447 1448 1449 1450 1451 1453 1455 1457 1459 1460 1462 1464 1466 1468 1471 1472 1474 1476 1477 1478 1479 1480 1481 1481 1481 1481 1481 1481 1481 1481 1480 1480
1465 1454 1454 1459 1449 1448 1450 1449 1451 1455 1451 1446 1446 1447 1448 1449 1450 1451 1452 1454 1455 1457 1459 1461 1462 1464 1467 1469 1471 1473 1475 1476 1477 1478 1479 1479 1479 1480 1479 1479 1479 1479 1479 1479
1464 1462 1472 1454 1440 1442 1446 1446 1445 1445 1445 1445 1446 1447 1447 1448 1448 1449 1450 1451 1453 1454 1456 1458 1459 1461 1463 1466 1468 1470 1472 1473 1474 1475 1476 1477 1477 1478 1478 1478 1478 1478 1478 1478
1466 1468 1459 1447 1440 1442 1446 1448 1444 1444 1444 1445 1445 1444 1445 1446 1447 1448 1448 1449 1450 1451 1453 1455 1456 1458 1460 1462 1465 1467 1468 1470 1471 1472 1473 1474 1475 1476 1476 1476 1477 1477 1477 1477
1464 1470 1469 1452 1442 1441 1445 1451 1445 1445 1446 1446 1446 1449 1447 1446 1445 1446 1446 1447 1448 1449 1450 1451 1453 1455 1457 1459 1461 1463 1464 1466 1468 1469 1470 1471 1472 1473 1474 1475 1475 1475 1475 1475
1464 1465 1455 1445 1443 1443 1457 1457 1448 1447 1448 1448 1448 1449 1448 1446 1445 1445 1445 1445 1446 1447 1448 1449 1450 1452 1454 1456 1457 1459 1461 1463 1465 1466 1467 1469 1470 1471 1472 1473 1473 1473 1474 1474
1457 1463 1460 1447 1445 1450 1452 1449 1449 1449 1450 1450 1449 1448 1448 1446 1445 1445 1444 1444 1444 1444 1445 1446 1447 1448 1450 1452 1453 1455 1457 1459 1461 1463 1464 1466 1467 1468 1469 1470 1471 1471 1472 1472
1452 1454 1449 1448 1449 1451 1451 1451 1451 1451 1451 1450 1449 1448 1447 1446 1445 1444 1443 1442 1442 1442 1442 1443 1443 1445 1446 1448 1450 1451 1453 1455 1457 1459 1461 1462 1463 1465 1466 1467 1468 1469 1469 1470
1450 1447 1448 1449 1449 1450 1451 1451 1451 1451 1450 1450 1449 1447 1445 1444 1443 1442 1441 1440 1439 1439 1439 1439 1440 1441 1442 1444 1445 1447 1448 1450 1453 1455 1457 1458 1459 1461 1462 1463 1464 1465 1466 1467
1452 1450 1449 1449 1450 1450 1450 1451 1451 1450 1449 1448 1447 1445 1443 1442 1440 1439 1438 1437 1436 1435 1435 1435 1436 1437 1438 1439 1440 1442 1444 1446 1448 1450 1452 1453 1455 1457 1458 1459 1461 1462 1462 1463
1453 1451 1451 1450 1450 1450 1450 1449 1449 1448 1446 1445 1444 1443 1441 1439 1437 1436 1434 1433 1432 1431 1431 1431 1432 1432 1433 1434 1435 1437 1439 1441 1443 1445 1447 1449 1450 1452 1453 1455 1457 1458 1459 1460
1451 1450 1450 1449 1449 1449 1448 1447 1446 1445 1444 1442 1441 1439 1437 1435 1433 1432 1430 1429 1428 1427 1427 1427 1427 1427 1427 1428 1430 1432 1434 1435 1437 1439 1441 1443 1445 1447 1448 1450 1452 1453 1454 1455
1449 1449 1447 1447 1447 1446 1446 1445 1444 1442 1441 1439 1437 1435 1433 1431 1429 1428 1426 1425 1424 1423 1422 1422 1422 1421 1422 1423 1424 1426 1428 1430 1432 1434 1436 1438 1439 1441 1444 1445 1447 1448 1450 1451
1447 1446 1446 1445 1444 1443 1443 1442 1440 1439 1437 1436 1433 1431 1429 1427 1425 1423 1421 1420 1419 1418 1417 1416 1416 1416 1416 1417 1418 1420 1422 1424 1426 1428 1430 1432 1434 1437 1439 1441 1442 1444 1445 1447
1444 1443 1442 1442 1441 1441 1440 1439 1437 1436 1434 1432 1430 1428 1425 1423 1420 1418 1416 1415 1413 1412 1411 1410 1410 1410 1410 1411 1413 1414 1416 1418 1420 1422 1424 1427 1429 1431 1433 1436 1438 1439 1441 1443
1441 1440 1440 1439 1438 1438 1437 1436 1434 1432 1430 1428 1426 1423 1421 1419 1416 1413 1411 1409 1408 1407 1406 1405 1405 1405 1405 1406 1407 1408 1410 1412 1414 1417 1419 1421 1424 1426 1428 1430 1432 1435 1437 1439
1438 1438 1437 1436 1435 1434 1433 1432 1430 1428 1427 1424 1422 1419 1417 1414 1411 1408 1406 1404 1402 1401 1400 1400 1399 1399 1399 1400 1401 1402 1404 1407 1408 1410 1413 1416 1419 1421 1423 1425 1427 1430 1432 1435
1434 1434 1433 1432 1431 1430 1429 1427 1426 1424 1422 1420 1417 1414 1412 1410 1407 1404 1401 1399 1397 1395 1394 1394 1394 1393 1393 1394 1395 1397 1399 1401 1403 1405 1408 1411 1414 1417 1419 1421 1423 1425 1428 1430
1431 1430 1430 1428 1427 1427 1425 1423 1422 1420 1418 1415 1413 1410 1407 1404 1402 1399 1396 1394 1392 1390 1389 1389 1388 1388 1389 1390 1391 1392 1394 1396 1398 1400 1402 1405 1408 1411 1414 1416 1418 1421 1423 1426
1428 1427 1426 1425 1424 1422 1421 1420 1417 1415 1413 1411 1408 1405 1402 1400 1397 1395 1391 1389 1387 1386 1384 1384 1383 1383 1384 1385 1386 1388 1389 1391 1393 1395 1397 1400 1403 1406 1409 1411 1414 1416 1419 1421
1425 1423 1422 1421 1420 1418 1417 1415 1413 1411 1408 1405 1403 1400 1398 1395 1392 1389 1387 1385 1383 1381 1380 1379 1379 1379 1379 1380 1381 1383 1384 1386 1388 1390 1393 1395 1398 1400 1404 1406 1409 1412 1414 1417
1421 1420 1418 1417 1415 1413 1412 1410 1408 1406 1403 1401 1398 1395 1393 1390 1388 1385 1382 1380 1378 1376 1375 1374 1374 1374 1375 1376 1377 1378 1380 1382 1384 1386 1388 1390 1393 1396 1399 1402 1405 1407 1410 1413
1416 1415 1414 1412 1410 1408 1406 1405 1403 1401 1398 1396 1393 1391 1388 1386 1383 1381 1379 1376 1374 1372 1371 1370 1370 1370 1370 1371 1372 1374 1376 1377 1379 1381 1384 1386 1389 1392 1395 1398 1401 1403 1406 1409
1411 1409 1408 1407 1405 1403 1401 1400 1398 1395 1393 1391 1389 1386 1384 1382 1379 1377 1375 1372 1370 1369 1367 1366 1366 1366 1366 1367 1368 1370 1371 1373 1375 1377 1380 1383 1385 1388 1391 1394 1397 1400 1402 1405
1405 1404 1402 1401 1400 1398 1396 1394 1392 1390 1389 1386 1384 1382 1380 1378 1375 1373 1371 1369 1367 1365 1364 1363 1362 1362 1363 1364 1365 1366 1368 1370 1372 1374 1376 1379 1382 1385 1387 1390 1393 1396 1399 1402
1400 1398 1397 1395 1394 1392 1391 1389 1387 1386 1384 1382 1380 1378 1376 1374 1371 1369 1368 1366 1364 1362 1361 1361 1360 1360 1361 1361 1362 1363 1365 1367 1369 1371 1374 1376 1379 1382 1385 1387 1390 1393 1396 1398